Tracking 29781 objects as of 15-Oct-2024
HD Live streaming from Space Station
objects crossing your sky now

STARLINK-30946

Track STARLINK-30946 now!
10-day predictions
STARLINK-30946 is classified as:


NORAD ID: 58450
Int'l Code: 2023-183P
Perigee: 565.2 km
Apogee: 567.2 km
Inclination: 43.0 °
Period: 95.8 minutes
Semi major axis: 6937 km
RCS: Unknown
Launch date: November 28, 2023
Source: United States (US)
Launch site: AIR FORCE EASTERN TEST RANGE (AFETR)
Your satellite tracking list
Your tracking list is empty




NASA's NSSDC Master Catalog

Two Line Element Set (TLE):
1 58450U 23183P   24289.48292102  .00001878  00000-0  15400-3 0  9999
2 58450  43.0029 295.8414 0001446 275.1142  84.9535 15.02556977 49994
Source of the keplerian elements: AFSPC